Location: Aero Crafter Incorporated Heliport
(33.1248°N, 96.5222°W)
Time: 10:18:40
(UTC+00:00)

OAO 1 Rocket - Pass Details

Date: 18 November 2025
Orbit: 737 x 749 km, 35.0° (Epoch: 07 December)

Event Time Altitude Azimuth Distance (km) Brightness Sun altitude
Exits shadow 12:23:04 - 266° (W) 2,436 6.5 -8.1°
Reaches altitude 10° 12:23:35 10° 266° (W) 2,240 6.3 -8.0°
Maximum altitude 12:28:52 76° 353° (N) 759 4.5 -6.9°
Drops below altitude 10° 12:34:08 10° 79° (E) 2,235 8.0 -5.9°
Sets 12:36:34 0° 81° (E) 3,156 8.9 -5.4°
